Regional Weather Roundup
Issued by NWS State College, PA

Home | Current Version | Previous Version | Text Only | Print | Product List | Glossary Off
Versions: 1 2 3 4 5 6 7 8 9 10 11 12 13 14 15 16 17 18 19 20 21 22 23 24 25 26 27 28 29 30 31 32 33 34 35 36 37 38 39 40 41 42 43 44 45 46 47 48 49 50

000
ASUS41 KCTP 110603
RWRCTP

REGIONAL WEATHER ROUNDUP
NATIONAL WEATHER SERVICE STATE COLLEGE PA
200 AM EDT FRI JUL 11 2014

Note: "fair" indicates few or no clouds below 12,000 feet with no
significant weather and/or obstructions to visibility.

* = STATION THAT DOES NOT REPORT PRECIPITATION /E.G. RAIN...SNOW...ETC/
    THUNDER OR FOG.

PAZ002>004-007>009-013>016-020>023-029>032-110700-
WESTERN PENNSYLVANIA

CITY           SKY/WX    TMP DP  RH WIND       PRES   REMARKS
ERIE           CLEAR     59  53  80 CALM      30.19R
MEADVILLE      CLEAR     58  53  84 N5        30.20R
FRANKLIN*      CLEAR     57  52  82 N3        30.21R
NEW CASTLE     NOT AVBL
BEAVER COUNTY  NOT AVBL
BUTLER*        CLEAR     61  54  77 NE3       30.19S
PITTSBURGH INT PTCLDY    68  56  65 CALM      30.16S
PITTSBURGH     CLEAR     68  55  63 CALM      30.16S
INDIANA*       MOCLDY    64  61  88 E6        30.22S
LATROBE        CLEAR     63  63 100 CALM      30.17S
WASHINGTON CO* CLEAR     57  55  94 CALM      30.16F
$$

PAZ004>006-010>012-017>019-024>028-033>037-041-042-045-046-049>053-110700-
CENTRAL PENNSYLVANIA

CITY           SKY/WX    TMP DP  RH WIND       PRES   REMARKS
BRADFORD       CLEAR     53  50  89 CALM      30.23R
DUBOIS         CLEAR     62  58  86 E7        30.20S
CLEARFIELD     CLEAR     59  58  96 N5        30.21S
JOHNSTOWN      PTCLDY    61  55  81 CALM      30.21S
ALTOONA        CLEAR     60  59  96 CALM      30.21R FOG
STATE COLLEGE  FOG       61  60  98 CALM      30.20S VSB 3/4
WILLIAMSPORT   PTCLDY    63  59  87 CALM      30.17R
SELINSGROVE    PTCLDY    65  63  93 CALM      30.17S
FT INDIANTOWN  CLEAR     64  64 100 N1        30.16S FOG
CAPITAL CITY   CLEAR     64  61  90 CALM      30.15F
HARRISBURG     PTCLDY    67  63  87 CALM      30.14F
YORK           MOCLDY    63  62  97 CALM      30.15F FOG
$$

PAZ038>040-043-044-047-048-054-055-060>062-067>071-110700-
EASTERN PENNSYLVANIA

CITY           SKY/WX    TMP DP  RH WIND       PRES   REMARKS
SCRANTON       PTCLDY    62  57  83 E5        30.18S
MOUNT POCONO   CLOUDY    64  54  69 NE7       30.20S
ALLENTOWN      CLOUDY    68  65  90 CALM      30.15F
QUAKERTOWN*    CLOUDY    66  64  94 NE3       30.15F
READING        MOCLDY    70  64  81 N3        30.14S
LANCASTER      PTCLDY    66  64  93 W3        30.15F FOG
COATESVILLE    CLOUDY    64  64 100 N5        30.15S
POTTSTOWN      CLOUDY    67  65  93 NW3       30.15F
BLUE BELL      CLOUDY    70  64  83 CALM      30.12F
DOYLESTOWN     CLOUDY    66  66 100 CALM      30.13F
WILLOW GROVE   NOT AVBL
NORTH PHILA    LGT RAIN  73  63  70 CALM      30.14F
PHILADELPHIA   LGT RAIN  72  65  78 E5        30.12F
$$



USA.gov is the U.S. government's official web portal to all federal, state and local government web resources and services.